Wind_Speed
26 28 28 26 25 23 23 24 25 25 24 23 23 23 24 23 23 22 23 22 20 18 18 18 16 14 14
19 23 26 28 30 30 29 27 26 26 28 29 28 28 28 26 25 25 25 24 23 22 20 18 17 16 15
15 18 22 23 26 28 28 29 26 30 29 27 24 23 22 24 25 26 25 25 25 24 23 21 19 18 17
20 18 17 20 18 22 22 29 31 30 30 18 22 19 27 28 24 22 21 23 26 26 24 23 23 21 20
17 17 16 16 18 20 22 22 24 25 27 25 31 30 32 31 29 28 27 25 25 26 27 24 25 24 23
16 16 18 20 23 22 23 17 10 15 15 28 28 31 32 31 29 27 26 24 25 26 28 28 26 26 24
20 21 22 23 24 22 22 20 20 25 22 25 24 30 31 31 27 26 27 28 28 24 24 26 25 26 25
20 20 20 22 21 23 24 25 28 27 21 15 24 27 32 29 32 29 25 26 26 26 25 26 25 24 23
22 23 22 21 21 23 23 18 19 22 23 18 26 25 22 31 23 23 23 29 29 24 24 26 26 24 22
24 25 25 26 26 22 22 17 17 18 13 11 21 19 12 20 22 32 29 31 28 26 23 23 23 24 22
22 25 28 29 26 20 18 18 19 19 24 21 20 20 16 20 24 28 31 29 33 31 27 22 24 21 20
24 25 24 24 22 20 21 20 20 22 24 20 19 21 21 19 18 24 28 32 29 28 26 21 20 19 19
22 23 23 21 22 22 20 21 23 21 22 23 22 24 23 18 21 24 26 31 26 26 25 22 20 17 17
21 21 21 22 23 21 21 22 16 21 21 22 21 22 25 21 21 26 25 21 23 21 21 17 18 23 20
19 21 19 20 23 22 18 22 18 19 24 27 23 19 20 20 21 21 23 26 23 24 18 17 16 20 26
21 22 18 19 21 21 20 21 19 17 16 22 25 22 19 20 17 19 18 17 14 15 10 10 8 9 10
24 25 23 19 20 24 23 16 16 16 22 22 18 17 7 7 17 13 14 19 16 9 2 3 4 8 9
Wind_Direction
301 310 315 320 322 322 321 319 320 319 320 314 307 307 307 304 302 300 298 296 294 289 289 292 294 292 288
307 315 315 317 320 321 322 323 322 319 316 308 305 299 298 301 300 298 296 292 290 288 280 280 282 284 285
304 309 313 317 318 318 319 320 319 320 320 320 315 310 310 303 298 297 294 290 288 286 280 272 270 271 275
315 316 322 325 314 309 316 315 316 321 328 327 323 314 314 316 308 303 303 289 284 282 280 272 267 265 265
309 309 312 317 309 309 310 314 311 314 311 315 319 318 319 317 315 305 303 299 294 286 277 269 264 262 263
306 299 299 304 309 312 305 305 307 313 303 307 315 312 316 318 314 313 309 300 295 290 279 273 262 259 259
303 306 306 312 314 309 306 299 294 300 303 300 304 302 309 314 318 311 309 303 296 287 282 273 264 257 257
308 307 306 307 305 306 308 304 302 302 303 287 300 294 305 306 312 316 308 308 301 288 281 279 265 255 253
303 305 305 304 305 309 303 298 295 294 296 289 290 299 307 306 309 316 308 305 308 300 270 266 268 256 249
306 303 301 302 308 307 302 291 291 296 303 296 297 305 299 294 300 306 311 320 312 308 291 252 252 249 240
301 300 301 306 312 314 309 301 287 280 290 296 293 289 271 286 291 299 307 309 311 304 304 254 235 228 242
309 309 312 315 316 313 311 308 299 288 289 293 286 290 290 294 294 302 304 302 302 295 291 257 229 217 227
314 313 315 316 314 315 310 307 309 303 294 296 294 296 285 278 288 291 300 304 287 281 281 247 216 209 191
307 311 313 315 315 318 310 312 309 312 317 310 305 301 282 282 288 295 294 289 279 282 261 236 217 199 182
315 316 310 308 309 314 303 304 293 299 304 311 314 312 303 295 289 292 297 307 273 254 243 207 204 199 186
311 310 302 303 305 312 309 302 299 299 303 309 318 314 311 301 287 278 301 315 323 235 177 157 159 165 167
305 305 302 296 295 305 308 299 292 293 296 309 311 306 306 290 299 303 292 317 325 329 60 219 232 232 224
Height
820 818 815 813 813 812 810 807 805 802 800 797 794 792 789 787 784 781 778 776 774 773 772 770 768 767 767
819 815 812 810 807 805 803 802 799 797 795 792 789 787 784 782 779 777 775 772 770 768 767 766 765 763 762
817 815 812 809 805 802 800 797 794 792 789 786 783 781 779 776 774 772 769 767 766 764 762 761 761 760 758
812 810 809 807 804 801 797 794 790 787 784 782 780 777 774 772 768 765 763 761 760 758 757 756 755 755 755
809 807 805 803 801 798 794 790 787 785 780 777 774 772 769 766 763 759 757 756 753 752 751 750 749 749 750
807 804 801 799 796 793 790 787 782 781 777 773 771 766 763 761 758 754 751 749 747 745 743 743 743 743 743
804 802 798 796 793 789 786 783 779 776 774 767 767 761 758 754 752 749 747 743 740 737 737 736 736 737 736
799 797 795 792 790 786 783 779 774 770 769 764 760 755 753 749 746 743 739 737 734 731 730 730 729 730 732
795 793 790 788 786 782 778 775 769 765 764 762 755 752 748 743 740 738 735 732 728 724 723 724 724 724 725
790 787 785 782 780 778 775 771 768 762 759 757 753 752 744 739 736 733 728 725 722 718 715 716 718 719 720
784 781 778 776 774 771 769 767 763 758 756 754 749 746 742 735 729 727 724 719 716 712 709 709 710 712 716
778 775 773 771 768 766 764 761 758 755 751 749 745 742 737 731 726 722 718 714 711 706 704 703 703 707 710
774 772 769 767 764 761 759 756 752 749 746 744 741 737 733 729 724 718 714 707 704 701 700 699 699 702 706
771 768 765 762 759 757 753 750 747 743 741 739 736 733 728 725 721 715 711 705 699 697 696 696 697 699 702
767 764 761 758 755 752 750 746 743 739 735 732 730 727 724 721 717 712 706 699 693 693 694 693 694 696 701
763 761 757 754 751 748 746 743 739 736 733 729 725 722 718 714 712 707 704 699 693 690 689 692 697 699 702
759 756 753 750 747 743 741 739 735 732 728 726 723 721 716 712 707 706 703 699 696 693 692 696 698 700 701